Time,TemperatureF,DewpointF,PressureIn,WindDirection,WindDirectionDegrees,WindSpeedMPH,WindSpeedGustMPH,Humidity,HourlyPrecipIn,Conditions,Clouds,dailyrainin,SoftwareType,DateUTC
2013-02-20 09:28:00,54.6,46.5,30.15,SSE,158,1.3,6.3,74,0.00,,BKN240,0.00,VWS V14.00,2013-02-20 07:28:00,
2013-02-20 09:38:00,55.1,46.2,30.15,SSE,158,3.5,8.1,72,0.00,,BKN240,0.00,VWS V14.00,2013-02-20 07:38:00,
2013-02-20 09:48:00,55.7,45.5,30.15,South,180,0.0,5.8,68,0.00,,BKN240,0.00,VWS V14.00,2013-02-20 07:48:00,
2013-02-20 09:58:00,55.9,45.3,30.14,SSE,158,0.0,0.0,67,0.00,,FEW060,0.00,VWS V14.00,2013-02-20 07:58:00,
2013-02-20 10:08:00,56.0,45.0,30.14,SSE,158,0.0,5.8,66,0.00,,FEW060,0.00,VWS V14.00,2013-02-20 08:08:00,
2013-02-20 10:18:00,56.4,45.3,30.14,SSE,158,1.1,6.6,66,0.00,,FEW060,0.00,VWS V14.00,2013-02-20 08:18:00,
2013-02-20 10:28:00,56.9,45.8,30.14,SSE,158,1.3,3.6,66,0.00,,FEW060,0.00,VWS V14.00,2013-02-20 08:28:00,
2013-02-20 10:38:00,56.4,45.8,30.14,SSE,158,3.5,7.6,67,0.00,,FEW060,0.00,VWS V14.00,2013-02-20 08:38:00,
2013-02-20 10:48:00,57.1,46.0,30.14,SSE,158,3.3,7.3,66,0.00,,FEW060,0.00,VWS V14.00,2013-02-20 08:48:00,
2013-02-20 10:58:00,57.5,46.4,30.14,South,180,4.4,7.3,66,0.00,,FEW050,0.00,VWS V14.00,2013-02-20 08:58:00,
2013-02-20 11:08:00,57.8,46.2,30.13,SSE,158,1.3,7.3,65,0.00,,FEW050,0.00,VWS V14.00,2013-02-20 09:08:00,
2013-02-20 11:18:00,58.2,46.2,30.13,SSE,158,0.0,8.4,64,0.00,,FEW050,0.00,VWS V14.00,2013-02-20 09:18:00,
2013-02-20 11:28:00,58.6,46.5,30.13,SSE,158,2.9,8.7,64,0.00,,FEW050,0.00,VWS V14.00,2013-02-20 09:28:00,
2013-02-20 11:38:00,59.1,46.1,30.12,SSE,158,0.0,7.6,62,0.00,,FEW050,0.00,VWS V14.00,2013-02-20 09:38:00,
2013-02-20 11:48:00,59.3,45.8,30.12,SSE,158,0.0,5.1,61,0.00,,FEW050,0.00,VWS V14.00,2013-02-20 09:48:00,
2013-02-20 12:58:00,59.8,44.8,30.09,NNE,22,5.1,10.6,58,0.00,,SCT030,0.00,VWS V14.00,2013-02-20 10:58:00,
2013-02-20 13:08:00,60.2,46.2,30.08,SSE,158,4.4,8.4,60,0.00,,SCT030,0.00,VWS V14.00,2013-02-20 11:08:00,
2013-02-20 13:18:00,60.7,46.7,30.08,SSE,158,4.6,7.6,60,0.00,,SCT030,0.00,VWS V14.00,2013-02-20 11:18:00,
2013-02-20 13:28:00,60.9,46.3,30.08,North,0,0.0,7.6,59,0.00,,SCT030,0.00,VWS V14.00,2013-02-20 11:28:00,
2013-02-20 13:38:00,60.9,46.3,30.08,North,0,4.2,10.2,59,0.00,,SCT030,0.00,VWS V14.00,2013-02-20 11:38:00,
2013-02-20 13:48:00,61.4,46.3,30.08,SW,225,2.2,6.9,58,0.00,,SCT030,0.00,VWS V14.00,2013-02-20 11:48:00,
2013-02-20 13:58:00,61.1,46.0,30.08,SW,225,0.0,7.3,58,0.00,,SCT030,0.00,VWS V14.00,2013-02-20 11:58:00,
2013-02-20 14:08:00,61.4,46.8,30.08,SSW,202,4.0,9.9,59,0.00,,SCT030,0.00,VWS V14.00,2013-02-20 12:08:00,
2013-02-20 14:18:00,61.8,46.7,30.08,South,180,4.0,6.6,58,0.00,,SCT030,0.00,VWS V14.00,2013-02-20 12:18:00,
2013-02-20 14:28:00,61.4,46.3,30.08,SSW,202,0.0,10.6,58,0.00,,SCT030,0.00,VWS V14.00,2013-02-20 12:28:00,
2013-02-20 14:38:00,61.4,46.8,30.08,SSE,158,0.0,5.4,59,0.00,,SCT030,0.00,VWS V14.00,2013-02-20 12:38:00,
2013-02-20 14:48:00,61.4,46.3,30.08,SW,225,0.0,10.6,58,0.00,,SCT030,0.00,VWS V14.00,2013-02-20 12:48:00,
2013-02-20 14:58:00,61.4,46.3,30.08,SW,225,0.0,5.1,58,0.00,,SCT030,0.00,VWS V14.00,2013-02-20 12:58:00,
2013-02-20 15:08:00,61.4,47.3,30.08,SSE,158,4.4,10.2,60,0.00,,SCT030,0.00,VWS V14.00,2013-02-20 13:08:00,
2013-02-20 15:18:00,61.1,47.5,30.07,SSW,202,3.3,9.1,61,0.00,,SCT030,0.00,VWS V14.00,2013-02-20 13:18:00,
2013-02-20 15:28:00,60.9,47.3,30.07,North,0,6.7,13.2,61,0.00,,SCT030,0.00,VWS V14.00,2013-02-20 13:28:00,
2013-02-20 15:38:00,60.7,47.1,30.07,SW,225,2.0,11.1,61,0.00,,SCT030,0.00,VWS V14.00,2013-02-20 13:38:00,
2013-02-20 15:48:00,60.2,47.1,30.06,SSW,202,0.0,12.0,62,0.00,,SCT030,0.00,VWS V14.00,2013-02-20 13:48:00,
2013-02-20 15:58:00,60.4,47.3,30.07,SW,225,2.4,8.1,62,0.00,,SCT030,0.00,VWS V14.00,2013-02-20 13:58:00,
2013-02-20 16:08:00,60.2,47.1,30.07,SW,225,0.0,7.3,62,0.00,,,0.00,VWS V14.00,2013-02-20 14:08:00,
2013-02-20 16:18:00,60.0,47.0,30.07,SSW,202,5.1,8.4,62,0.00,,,0.00,VWS V14.00,2013-02-20 14:18:00,
2013-02-20 16:28:00,59.6,47.0,30.07,SW,225,1.5,8.4,63,0.00,,,0.00,VWS V14.00,2013-02-20 14:28:00,
2013-02-20 16:38:00,59.3,46.8,30.07,SW,225,2.2,8.1,63,0.00,,,0.00,VWS V14.00,2013-02-20 14:38:00,
2013-02-20 16:48:00,59.1,47.0,30.07,SW,225,0.0,9.1,64,0.00,,,0.00,VWS V14.00,2013-02-20 14:48:00,
2013-02-20 16:58:00,58.6,47.0,30.07,NNE,22,2.6,6.9,65,0.00,,FEW180,0.00,VWS V14.00,2013-02-20 14:58:00,
2013-02-20 17:08:00,58.2,47.1,30.07,South,180,1.7,6.6,66,0.00,,FEW180,0.00,VWS V14.00,2013-02-20 15:08:00,
2013-02-20 17:18:00,57.5,46.4,30.08,NNE,22,0.6,4.3,66,0.00,,FEW180,0.00,VWS V14.00,2013-02-20 15:18:00,
2013-02-20 17:28:00,56.9,46.3,30.08,South,180,2.4,8.7,67,0.00,,FEW180,0.00,VWS V14.00,2013-02-20 15:28:00,
2013-02-20 17:38:00,56.4,46.6,30.08,NNE,22,2.4,6.3,70,0.00,,FEW180,0.00,VWS V14.00,2013-02-20 15:38:00,
2013-02-20 17:48:00,55.7,46.4,30.08,NNE,22,0.0,4.0,71,0.00,,FEW180,0.00,VWS V14.00,2013-02-20 15:48:00,
2013-02-20 17:58:00,55.1,46.2,30.09,NNE,22,1.7,4.8,72,0.00,,FEW170,0.00,VWS V14.00,2013-02-20 15:58:00,
2013-02-20 18:08:00,54.6,46.1,30.09,NNE,22,1.7,5.1,73,0.00,,FEW170,0.00,VWS V14.00,2013-02-20 16:08:00,
2013-02-20 18:18:00,54.2,45.8,30.09,NNE,22,0.0,2.8,73,0.00,,FEW170,0.00,VWS V14.00,2013-02-20 16:18:00,
2013-02-20 18:28:00,54.1,46.0,30.09,NNE,22,0.0,0.0,74,0.00,,FEW170,0.00,VWS V14.00,2013-02-20 16:28:00,
2013-02-20 18:38:00,53.7,46.0,30.10,NNE,22,0.0,0.0,75,0.00,,FEW170,0.00,VWS V14.00,2013-02-20 16:38:00,
2013-02-20 18:48:00,53.5,45.9,30.10,NNE,22,0.0,0.0,75,0.00,,FEW170,0.00,VWS V14.00,2013-02-20 16:48:00,
2013-02-20 18:57:00,53.0,45.8,30.10,NNE,22,0.0,0.0,76,0.00,,FEW170,0.00,VWS V14.00,2013-02-20 16:57:00,
2013-02-20 19:08:00,53.2,46.0,30.11,NNE,22,0.0,0.0,76,0.00,,,0.00,VWS V14.00,2013-02-20 17:08:00,
2013-02-20 19:18:00,52.8,45.2,30.11,NNE,22,0.0,0.0,75,0.00,,,0.00,VWS V14.00,2013-02-20 17:18:00,
2013-02-20 19:28:00,52.6,45.4,30.10,NNE,22,0.0,2.1,76,0.00,,,0.00,VWS V14.00,2013-02-20 17:28:00,
2013-02-20 19:37:00,52.1,45.3,30.11,NE,45,3.3,5.4,77,0.00,,,0.00,VWS V14.00,2013-02-20 17:37:00,
2013-02-20 19:47:00,51.9,45.4,30.11,NE,45,0.0,5.4,78,0.00,,,0.00,VWS V14.00,2013-02-20 17:47:00,
2013-02-20 19:58:00,51.5,45.4,30.11,NNE,22,0.0,0.0,80,0.00,,,0.00,VWS V14.00,2013-02-20 17:58:00,
2013-02-20 20:08:00,51.5,45.8,30.11,NNE,22,0.0,0.0,81,0.00,,,0.00,VWS V14.00,2013-02-20 18:08:00,
2013-02-20 20:17:00,51.5,45.8,30.12,NNE,22,0.0,0.0,81,0.00,,,0.00,VWS V14.00,2013-02-20 18:17:00,
2013-02-20 20:28:00,51.0,45.3,30.12,NNE,22,0.0,0.0,81,0.00,,,0.00,VWS V14.00,2013-02-20 18:28:00,
2013-02-20 20:37:00,50.6,45.3,30.12,NNE,22,0.0,0.0,82,0.00,,,0.00,VWS V14.00,2013-02-20 18:37:00,
2013-02-20 20:47:00,50.5,45.5,30.12,NNE,22,0.0,0.0,83,0.00,,,0.00,VWS V14.00,2013-02-20 18:47:00,
2013-02-20 20:57:00,50.3,45.3,30.12,NE,45,4.2,6.9,83,0.00,,,0.00,VWS V14.00,2013-02-20 18:57:00,
2013-02-20 21:07:00,50.3,45.3,30.12,NE,45,2.4,6.9,83,0.00,,,0.00,VWS V14.00,2013-02-20 19:07:00,
2013-02-20 21:17:00,50.3,45.3,30.12,NE,45,3.5,5.8,83,0.00,,,0.00,VWS V14.00,2013-02-20 19:17:00,
2013-02-20 21:27:00,50.1,45.1,30.12,NE,45,2.9,7.3,83,0.00,,,0.00,VWS V14.00,2013-02-20 19:27:00,
2013-02-20 21:38:00,50.5,44.8,30.12,NE,45,4.9,10.6,81,0.00,,,0.00,VWS V14.00,2013-02-20 19:38:00,
2013-02-20 21:48:00,49.9,44.2,30.12,NE,45,3.5,8.1,81,0.00,,,0.00,VWS V14.00,2013-02-20 19:48:00,
2013-02-20 21:57:00,49.4,44.4,30.12,NNE,22,3.5,6.6,83,0.00,,,0.00,VWS V14.00,2013-02-20 19:57:00,
2013-02-20 22:07:00,49.2,44.2,30.12,NNE,22,4.4,8.1,83,0.00,,,0.00,VWS V14.00,2013-02-20 20:07:00,
2013-02-20 22:18:00,49.2,44.2,30.12,NE,45,4.4,7.6,83,0.00,,,0.00,VWS V14.00,2013-02-20 20:18:00,
2013-02-20 22:27:00,49.2,43.9,30.12,NE,45,4.4,7.3,82,0.00,,,0.00,VWS V14.00,2013-02-20 20:27:00,
2013-02-20 22:37:00,49.2,43.5,30.11,NE,45,3.8,7.3,81,0.00,,,0.00,VWS V14.00,2013-02-20 20:37:00,
2013-02-20 22:47:00,49.2,43.5,30.12,NE,45,3.5,6.9,81,0.00,,,0.00,VWS V14.00,2013-02-20 20:47:00,
2013-02-20 22:58:00,48.8,43.2,30.11,NNE,22,5.5,10.2,81,0.00,,,0.00,VWS V14.00,2013-02-20 20:58:00,